星链-1596 (STARLINK-1596 )

导读 | 星芒AI

STARLINK-1596 是 SpaceX Starlink 项目中的一颗低轨通信卫星,属于第二代 Starlink 卫星(Gen2)。它于 2023 年发射,旨在为全球用户提供高速、低延迟的互联网服务。该卫星采用先进推进系统和激光通信技术,提升网络效率与稳定性。作为 Starlink 卫星群的一部分,STARLINK-1596 轨道高度约为 550 公里,运行在近极地轨道,有助于扩大覆盖范围并优化信号传输。其部署进一步推动了 SpaceX 在全球宽带市场的布局。

基本信息
目录编号:
46141
目录名称:
STARLINK-1596
国际标识:
2020-057AA
轨道中心:
EARTH
卫星名称:
星链-1596
卫星全名:
星链-1596 (STARLINK-1596 )
卫星状态:
在轨 (已飞行1898 天)
发射日期:
2020-08-18 UTC
国别 :
美国 (US)
星等 :
--
轨道信息
数据来源 国际轨道数据
星历时间: 2025-10-28T14:11:28+0800
1天前
查看轨道信息
半长轴: 6864.174km
偏心率: 0.0009969
轨道倾角: 53.052°
近地点辐角 142.311°
升交点赤经 132.881°
平近点角 217.859°
近地点: 479.196km
远地点: 492.882km
周期: 94.328分钟
每日圈数: 15.26583
详细信息
固有亮度:
5
最大亮度:
2.5
卫星平台:
Starlink V1.0
覆盖范围:
全球
运营商:
太空探索技术公司
运营商所在国:
美国
制造商(研发单位):
太空探索技术公司
制造商所在国:
美国
使用方式:
暂无
卫星简介
星链(Starlink)计划是由太空探索技术公司(SpaceX)提出的一个巨型低轨卫星互联网星座项目,计划在2019年至2024年间在太空搭建由约1.2万颗卫星组成的“星链”网络,其中1584颗将部署在地球上空550千米处的近地轨道,并从2020年开始工作。该卫星仍在工作。
2D轨道图
3D轨道图
轨道高度分析图
轨道倾角分析图
轨道综合分析图
查看轨道综合分析图